Terminal Aerodrome Forecast
Issued by NWS

Home | Current Version | Previous Version | Text Only | Print | Product List | Glossary On
Versions: 1 2 3 4 5 6 7 8 9 10 11 12 13 14 15
000
FTUS41 KPBZ 110536
TAFDUJ
TAF
KDUJ 110536Z 1106/1206 25007KT P6SM VCSH BKN035
      TEMPO 1106/1109 4SM -SN OVC030
     FM110900 26007KT P6SM VCSH BKN018
     FM111600 26006KT P6SM BKN025
     FM112000 VRB04KT P6SM FEW025 OVC050
     FM120200 17005KT P6SM VCSH BKN035=

USA.gov is the U.S. government's official web portal to all federal, state and local government web resources and services.